Location: Blangy-Tronville
(49.8790°N, 2.4226°E)
Time: 02:33:30
(UTC+00:00)

Cosmos 2369 Rocket - Pass Details

Date: 18 November 2025
Orbit: 826 x 852 km, 71.0° (Epoch: 04 December)

Event Time Altitude Azimuth Distance (km) Brightness Sun altitude
Rises 17:46:39 0° 154° (SSE) 3,360 5.2 -16.5°
Reaches altitude 10° 17:50:00 10° 134° (SE) 2,436 4.3 -17.0°
Enters shadow 17:50:09 10° 133° (SE) 2,405 4.2 -17.0°
